Flag for USA

Past Weather in Birmingham, Alabama, USA — Yesterday and Last 2 Weeks

Now
54 °F

Passing clouds.


Feels Like: 54 °F
Forecast: 78 / 54 °F
Wind: No wind

Location: Birmingham International Airport
Current Time: Oct 1, 2020 at 7:42:24 am
Latest Report: Oct 1, 2020 at 6:53 am
Visibility: 10 mi
Pressure30.06 "Hg
Humidity: 86%
Dew Point: 50 °F
Location of BirminghamLocation

Past Weather in Birmingham — Graph

°F

Birmingham Temperature Yesterday

Maximum temperature yesterday: 79 °F (at 3:53 pm)
Minimum temperature yesterday: 49 °F (at 5:53 am)
Average temperature yesterday: 63 °F

High & Low Weather Summary for the Past Weeks

 TemperatureHumidityPressure
High88 °F (Sep 17, 2:53 pm)97% (Sep 24, 5:01 pm)30.35 "Hg (Sep 24, 5:01 pm)
Low49 °F (Sep 30, 5:53 am)31% (Sep 20, 4:53 pm)29.77 "Hg (Sep 24, 3:53 pm)
Average69 °F72%30.01 "Hg
* Reported Sep 16 5:53 am — Oct 1 5:53 am, Birmingham. Weather by CustomWeather, © 2020

Note: Actual official high and low records may vary slightly from our data, if they occured in-between our weather recording intervals... More about our weather records

Birmingham Weather History for the Previous 24 Hours

Scroll right to see more
 ConditionsComfort  
Time TempWeatherWind HumidityBarometerVisibility
5:53 am
Thu, Oct 1
54 °FClear.No wind86%30.04 "Hg10 mi
4:53 am54 °FClear.No wind90%30.04 "Hg10 mi
3:53 am54 °FClear.No wind90%30.04 "Hg10 mi
2:53 am54 °FClear.No wind90%30.06 "Hg10 mi
1:53 am55 °FClear.No wind90%30.05 "Hg8 mi
12:53 am57 °FClear.No wind87%30.06 "Hg10 mi
11:53 pm
Wed, Sep 30
57 °FClear.No wind87%30.06 "Hg10 mi
10:53 pm58 °FClear.No wind84%30.06 "Hg10 mi
9:53 pm59 °FClear.No wind81%30.06 "Hg10 mi
8:53 pm62 °FClear.No wind73%30.06 "Hg10 mi
7:53 pm67 °FClear.No wind57%30.06 "Hg10 mi
6:53 pm72 °FClear.6 mph43%30.05 "Hg10 mi
5:53 pm75 °FSunny.10 mph37%30.04 "Hg10 mi
4:53 pm78 °FSunny.12 mph33%30.03 "Hg10 mi
3:53 pm79 °FSunny.7 mph31%30.04 "Hg10 mi
2:53 pm78 °FSunny.9 mph32%30.06 "Hg10 mi
1:53 pm77 °FSunny.9 mph33%30.07 "Hg10 mi
12:53 pm76 °FSunny.7 mph36%30.10 "Hg10 mi
11:53 am74 °FSunny.10 mph37%30.10 "Hg10 mi
10:53 am71 °FSunny.10 mph42%30.11 "Hg10 mi
9:53 am67 °FSunny.7 mph49%30.11 "Hg10 mi
8:53 am61 °FSunny.No wind70%30.11 "Hg10 mi
7:53 am55 °FSunny.No wind83%30.10 "Hg10 mi
Weather by CustomWeather, © 2020

See weather overview